Theta_e
319 320 321 322 320 317 317 317 316 315 314 315 317 317 316 316 314 316 317 315 315 316 316 317 317 317 316 317 318 318 319 319 318 319 319 319 319 319 320 321 322 322 320 318 318 317 318 318 318 318 318 317 317 316 316 316 316 315 315 314 313 313 314 314 312 312 314 317 316 316 317 318 319 320 320 320 320 321 322 322 322 323 322 322 322 324
317 320 322 320 317 316 316 316 315 315 315 315 316 316 317 318 317 317 317 315 315 317 317 317 316 316 316 317 318 318 318 318 317 317 318 318 319 321 321 322 322 324 324 322 319 317 316 317 317 317 316 316 316 315 316 316 315 315 314 314 313 312 312 313 312 313 315 316 316 316 317 318 319 319 319 319 319 320 321 321 321 322 321 320 321 322
318 319 319 316 316 316 316 315 315 316 317 316 317 318 318 319 318 317 318 315 314 317 318 318 318 317 316 316 316 317 317 317 317 317 317 318 320 321 322 322 322 326 331 327 320 316 315 316 316 316 316 315 315 315 315 316 315 315 314 313 313 312 311 311 311 313 315 316 316 317 317 317 318 318 318 318 318 319 320 320 320 320 320 319 319 320
318 317 316 315 315 315 315 315 316 316 317 318 318 317 318 321 319 315 316 317 315 316 319 321 320 318 317 318 317 317 316 316 317 318 318 320 323 322 322 324 324 327 331 325 320 317 314 315 316 315 315 315 315 315 315 315 315 314 314 312 312 311 310 310 311 313 315 315 315 316 316 317 318 318 318 317 318 318 318 319 319 318 318 318 317 317
317 315 315 315 314 314 315 315 316 315 316 320 321 318 318 320 319 316 318 319 316 318 323 322 321 322 322 323 323 321 320 319 319 320 322 323 325 325 324 327 327 327 329 324 321 318 314 314 315 315 315 315 315 315 315 314 314 314 313 312 312 311 310 311 311 312 313 314 314 314 315 316 316 316 315 314 314 315 315 317 318 317 317 316 316 315
317 315 315 316 314 314 315 316 318 318 315 317 323 324 321 320 320 320 321 321 316 318 323 321 321 326 324 322 324 321 321 323 323 323 324 323 324 325 326 328 328 328 328 323 320 318 314 313 315 315 315 314 315 315 314 314 314 313 313 312 311 310 310 311 311 312 313 313 314 314 313 314 314 312 311 313 314 314 315 315 316 316 316 315 315 313
315 314 316 317 317 319 318 316 319 322 315 312 321 327 325 324 323 321 321 321 317 318 322 321 321 322 318 315 318 317 318 322 323 325 327 323 323 327 327 328 329 328 328 325 321 317 314 313 314 315 315 314 315 315 315 314 313 313 312 312 311 310 310 310 311 312 313 313 314 314 314 314 314 313 314 316 317 316 315 313 313 315 315 313 313 313
314 316 320 320 320 323 320 317 320 321 316 317 324 326 324 323 323 322 321 320 320 321 325 324 321 322 320 317 317 316 316 320 322 324 325 322 323 327 328 328 328 328 328 328 325 319 315 313 313 315 315 315 315 314 314 313 313 312 312 311 311 310 309 309 310 312 313 313 313 313 313 313 315 316 317 318 316 315 314 310 310 313 314 313 312 312
317 320 322 321 321 322 319 321 326 323 319 323 326 325 324 324 324 324 321 321 323 323 325 326 323 324 323 319 319 320 316 318 322 321 320 322 327 328 327 328 327 326 326 326 325 320 314 312 313 315 315 314 315 314 314 313 312 312 311 311 310 309 309 309 309 311 312 313 313 313 313 312 313 314 315 316 314 313 312 308 308 311 312 312 313 312
318 317 319 320 320 321 319 320 327 327 322 324 324 325 325 325 324 322 321 323 323 321 323 328 326 319 317 317 320 320 317 319 322 319 320 326 330 330 329 327 323 323 322 321 321 317 312 313 314 314 315 314 314 314 314 313 312 312 311 310 310 309 309 309 309 311 312 313 313 313 313 312 311 311 311 311 310 310 310 306 305 308 310 311 313 313
314 313 317 320 317 318 317 317 324 326 323 323 325 326 324 323 324 322 322 322 320 322 324 327 325 316 313 320 323 319 319 322 319 317 324 330 329 328 330 326 321 321 319 318 319 315 312 313 314 314 315 314 314 314 313 312 312 311 311 310 310 309 307 307 308 310 312 313 312 312 312 311 310 310 310 310 308 308 309 306 305 308 309 311 312 313
316 315 316 318 315 316 318 318 322 323 323 325 325 323 321 323 325 323 322 322 321 323 324 325 327 321 316 321 323 320 319 321 320 319 324 330 332 329 326 323 320 319 318 317 318 316 313 313 313 313 314 314 314 313 313 312 311 311 310 309 309 308 306 306 308 310 311 312 312 311 311 310 310 310 310 311 311 311 311 310 308 308 309 310 310 312
320 319 318 317 315 316 320 322 321 320 322 326 323 320 319 320 324 324 326 328 326 322 322 322 324 322 317 318 321 320 318 319 321 321 324 328 333 333 327 321 319 319 317 317 317 317 315 313 312 312 314 314 313 313 312 312 311 310 309 309 309 308 306 306 307 309 310 311 310 309 309 309 309 310 311 312 313 313 314 312 310 309 310 310 311 312
321 322 320 317 316 316 319 321 321 319 321 324 322 323 323 319 320 323 324 327 326 321 322 321 321 322 319 317 319 319 318 321 322 322 325 326 329 335 331 323 320 319 316 316 316 317 316 312 310 312 313 313 313 313 312 311 311 310 309 309 309 307 306 305 306 308 310 310 308 308 309 309 309 310 310 311 312 313 312 311 311 312 313 313 313 313
321 324 321 318 318 318 319 320 320 320 320 320 320 321 324 320 318 319 320 323 325 322 320 319 320 324 321 317 320 321 320 322 323 324 326 326 327 333 333 327 323 319 316 317 316 316 314 310 310 312 312 313 313 312 312 311 311 310 309 309 308 307 306 305 305 307 309 309 308 308 308 308 309 310 310 310 309 310 309 308 309 310 311 311 312 310
318 322 323 321 320 317 320 323 321 320 319 319 319 320 323 323 318 319 319 320 321 321 321 323 324 325 322 318 319 320 319 320 322 325 326 325 325 327 331 331 326 320 318 318 317 316 313 310 310 312 312 313 313 312 312 311 310 310 309 309 308 307 306 304 305 306 308 308 308 308 307 307 308 309 308 307 307 307 307 307 307 307 306 307 307 307
319 322 322 321 321 317 319 323 322 322 321 320 323 324 325 325 320 320 320 318 318 317 320 323 321 319 316 316 318 316 315 316 319 322 322 322 324 325 328 329 328 324 320 319 318 317 314 310 310 312 312 313 313 312 312 311 310 310 309 308 307 307 305 304 304 305 307 307 307 307 307 307 308 308 307 306 306 306 305 305 305 303 302 302 303 305
322 322 319 318 320 317 316 319 320 322 323 323 325 323 321 323 321 318 318 320 320 318 319 318 314 313 312 315 321 319 316 317 317 318 319 321 324 324 324 325 331 330 323 320 319 317 313 309 310 311 312 313 313 313 312 311 310 310 309 308 306 306 305 304 304 305 307 307 306 306 306 307 307 307 307 306 306 306 306 305 303 301 300 301 303 305
320 320 319 316 317 317 315 316 319 320 320 321 323 321 319 323 323 320 317 318 320 318 319 318 314 313 313 313 317 318 319 320 319 317 318 320 321 322 321 325 334 334 327 323 320 318 315 310 309 311 311 312 313 313 312 311 310 309 309 308 306 306 305 304 304 304 306 307 306 306 308 308 308 308 308 307 305 305 306 306 304 301 300 301 302 304
318 318 320 316 315 317 316 317 321 322 319 319 320 320 320 322 322 322 319 318 319 318 317 318 316 314 315 315 316 316 318 319 319 319 320 320 320 321 321 326 335 336 331 325 320 319 317 311 309 311 311 312 313 312 312 311 310 310 309 308 306 305 305 304 304 304 305 305 306 307 308 308 308 308 308 307 305 305 305 306 305 302 300 300 301 303
318 317 321 317 315 319 319 318 319 320 318 317 318 320 322 320 319 322 322 319 320 320 317 317 317 315 316 318 318 318 317 318 320 323 326 324 321 324 330 336 340 335 330 325 321 321 317 310 309 311 311 312 312 312 312 311 310 310 308 308 307 305 304 304 304 304 304 304 305 307 307 307 307 307 307 306 305 304 305 305 304 301 299 300 301 301
317 316 323 320 317 320 322 320 318 319 320 317 315 317 319 319 318 320 321 319 320 321 319 319 319 316 316 319 318 316 318 321 325 326 327 327 326 332 338 337 336 333 328 325 322 321 317 310 309 310 310 311 312 311 311 311 310 309 308 308 307 305 304 304 303 303 303 303 304 306 306 306 307 307 306 305 303 303 303 303 301 299 298 298 299 300
321 319 322 323 321 320 319 319 318 320 322 320 318 317 317 317 318 320 321 321 323 322 318 320 320 316 319 326 323 321 325 329 330 329 325 326 330 335 334 329 328 328 326 324 323 320 314 309 309 310 310 311 311 311 311 310 310 309 308 308 307 306 305 304 303 303 303 303 304 306 306 305 306 307 305 303 302 302 302 301 300 298 297 297 297 298
322 320 319 320 321 320 318 317 317 317 318 321 321 321 320 318 318 319 321 323 326 324 320 321 320 316 321 332 330 327 330 329 329 329 325 327 329 329 329 330 329 326 323 321 320 316 311 308 309 308 308 309 310 311 311 310 309 309 308 308 307 306 305 304 303 303 303 303 303 305 305 305 306 307 305 302 301 302 302 301 299 297 297 296 296 296
319 320 322 321 320 322 322 320 319 319 318 320 321 321 322 323 321 319 319 320 322 323 322 322 320 316 321 330 327 324 326 325 326 328 326 328 330 326 326 330 330 327 324 321 317 315 313 311 309 306 306 308 309 310 310 310 309 309 308 308 307 306 305 304 303 303 302 302 303 304 304 304 305 306 305 303 301 302 303 301 299 297 296 296 296 295
319 320 320 320 319 321 323 324 324 323 320 319 321 321 321 323 323 321 320 320 319 319 320 320 318 315 318 321 320 320 322 322 323 324 323 325 327 326 327 330 330 328 327 324 320 318 315 312 308 305 306 307 307 309 310 309 309 309 308 308 307 306 305 304 303 303 302 302 302 302 303 304 304 305 305 304 303 302 302 301 299 297 296 296 296 295
321 319 316 318 319 318 319 323 326 324 320 320 321 320 319 320 322 321 321 321 319 318 318 318 317 316 315 315 316 319 322 323 323 321 322 324 325 327 330 331 330 330 329 326 322 320 317 315 311 306 305 306 306 307 309 309 309 309 308 308 307 306 305 304 304 302 301 301 301 301 303 304 305 305 305 305 304 303 301 300 298 297 296 296 295 295
323 320 318 318 318 317 316 320 324 322 320 321 320 319 319 319 321 322 321 319 318 319 318 317 317 318 316 314 315 317 320 323 324 322 323 325 326 330 333 330 329 330 329 325 323 322 321 320 316 308 304 305 306 306 307 308 309 309 308 308 308 307 306 304 303 302 301 301 301 301 302 303 304 305 304 304 304 302 300 298 297 296 296 295 294 294
323 321 321 319 319 318 317 318 323 323 320 320 319 318 318 319 320 321 320 318 318 319 318 316 318 319 317 314 316 318 318 319 320 320 322 322 322 326 330 330 330 331 330 328 327 327 324 323 320 310 304 305 305 305 306 307 308 308 308 308 308 307 306 304 303 302 301 300 300 301 301 301 302 303 303 302 302 301 299 298 297 296 295 294 293 293
320 320 320 319 319 320 319 318 321 323 322 321 320 319 318 318 319 319 318 317 318 318 317 317 318 318 316 315 316 318 319 318 318 318 319 320 321 323 325 327 328 327 326 325 326 326 325 322 319 310 304 304 305 305 305 306 307 307 307 308 308 307 306 304 303 302 300 300 300 300 300 300 300 301 301 300 300 300 299 297 296 296 295 293 292 291
318 320 319 317 318 319 320 320 321 323 323 322 323 322 319 318 318 318 318 317 318 318 318 318 319 317 315 315 316 317 317 318 319 319 320 321 322 322 323 323 322 322 321 321 321 323 323 321 320 314 306 304 305 305 305 306 306 306 306 307 307 306 306 304 303 301 300 300 300 299 299 299 299 299 299 299 299 298 297 296 295 294 294 293 291 290
317 320 320 318 317 317 318 319 319 320 320 321 323 323 321 320 319 318 318 318 318 318 318 319 319 317 315 315 318 318 318 319 320 321 323 323 322 322 321 320 319 319 320 320 320 321 322 323 325 320 310 306 307 307 306 306 306 305 305 306 306 306 305 304 303 301 300 300 299 299 299 298 298 297 297 297 298 297 296 295 294 293 293 292 290 289
318 318 318 319 318 316 318 320 320 319 319 319 319 318 317 318 319 319 319 320 318 318 318 319 318 316 315 316 318 318 319 321 321 321 322 322 322 321 319 318 318 319 319 321 321 323 325 323 319 315 311 310 310 309 309 308 306 306 306 306 305 305 304 304 303 301 301 300 299 298 298 298 297 296 296 296 296 296 295 294 293 293 292 291 290 289
319 317 317 319 317 316 320 323 322 320 319 318 318 319 317 316 317 318 319 319 318 318 318 317 316 316 316 317 317 317 318 319 320 321 321 321 320 319 319 321 322 321 320 321 321 323 324 318 312 311 312 312 312 312 311 309 307 307 307 305 304 305 304 304 303 301 301 300 299 299 299 298 297 296 296 296 295 295 294 294 294 293 292 291 290 289
318 316 316 317 317 318 320 321 321 320 319 318 323 324 319 316 316 317 318 317 316 318 319 318 317 317 316 316 317 316 316 317 318 318 317 317 318 319 321 323 322 320 319 320 321 322 319 313 310 312 313 312 313 312 310 309 308 307 305 304 304 304 304 304 303 301 301 300 299 299 299 298 297 296 295 295 295 294 294 294 293 292 291 290 289 289
316 315 315 317 318 320 320 320 320 320 319 321 324 321 317 318 318 318 319 319 316 316 318 318 317 317 317 317 317 316 316 316 316 316 316 318 321 321 320 319 319 320 320 318 318 319 316 311 310 311 311 311 312 311 310 309 308 306 305 304 304 304 304 303 302 301 300 299 299 299 298 298 297 296 295 295 294 294 293 293 292 292 291 290 289 288
316 315 315 317 317 318 318 318 319 320 320 321 321 318 317 318 318 319 320 319 317 316 317 317 317 316 317 317 317 316 317 317 316 315 319 326 327 323 321 320 319 319 318 314 313 313 312 310 310 310 309 309 309 309 309 309 308 306 305 304 303 303 303 302 301 301 300 299 299 299 298 298 297 296 296 295 294 293 293 292 292 291 290 289 289 288
316 316 316 316 317 317 317 318 319 321 321 319 318 319 320 319 318 320 320 319 317 317 317 317 317 316 316 318 318 317 316 317 317 316 321 329 326 321 323 324 317 312 312 311 310 311 311 310 309 308 307 307 307 307 307 307 307 305 304 303 303 302 302 301 301 301 300 299 299 299 298 298 297 297 296 295 294 293 293 292 292 291 290 289 289 288
315 316 315 316 317 317 318 318 320 321 321 320 321 322 322 321 320 320 321 320 318 318 320 318 317 317 318 318 317 316 317 318 318 317 321 327 325 321 323 324 316 309 309 310 309 308 309 307 307 307 307 306 307 306 305 305 305 305 303 303 302 301 300 301 301 300 300 300 299 299 298 298 297 297 296 295 294 293 293 292 292 291 290 289 289 288
315 315 315 316 316 317 318 319 319 319 319 320 321 320 320 321 320 322 322 320 319 322 324 320 318 319 318 317 316 318 321 321 319 317 319 322 322 318 316 317 315 310 308 308 307 306 306 305 305 305 305 305 305 305 304 303 303 303 303 303 301 300 300 301 301 301 300 300 299 298 298 297 297 296 296 295 294 294 293 292 292 291 290 289 289 288
315 315 315 315 316 316 317 319 319 319 320 320 319 319 320 321 320 321 322 321 323 328 324 320 321 320 318 318 319 320 322 320 318 318 319 319 317 315 310 307 308 307 306 306 306 305 304 304 303 303 303 303 303 303 302 302 302 302 302 301 300 300 301 301 300 300 299 299 298 298 297 297 296 296 295 295 294 293 293 292 291 290 289 289 288 287
316 316 315 315 316 315 316 318 318 319 322 322 318 317 320 320 321 323 321 319 323 327 322 320 321 319 318 319 319 319 319 319 318 319 319 317 317 317 313 307 306 306 305 305 304 303 303 302 302 302 302 302 302 301 301 301 300 301 301 299 299 301 301 300 299 299 298 298 297 297 297 296 296 295 295 294 294 293 292 291 291 290 289 288 287 287
316 316 316 316 316 316 317 318 318 318 320 319 317 317 317 318 323 328 323 317 318 322 322 321 318 316 316 317 317 316 317 317 316 316 316 315 315 315 312 309 307 306 304 303 303 303 302 301 301 301 301 301 300 300 300 299 299 299 298 298 300 300 299 298 298 298 297 297 297 296 296 296 295 295 294 294 293 293 291 290 289 289 288 287 287 286
315 316 317 316 316 317 317 317 318 321 320 317 316 318 317 316 322 327 324 320 319 320 320 319 316 312 312 313 314 315 315 315 315 315 314 314 314 313 311 308 305 304 303 303 303 302 301 300 300 300 300 300 299 299 298 298 298 297 297 298 299 298 297 297 297 296 296 296 296 296 295 295 295 294 294 293 293 292 290 289 288 288 287 287 286 286
315 315 316 316 316 317 317 316 318 322 320 315 314 318 318 316 318 321 322 321 319 316 313 313 314 313 313 312 313 314 314 314 314 313 312 312 312 312 310 307 304 303 303 303 302 301 300 299 298 298 298 299 299 298 297 297 296 296 296 297 297 296 296 296 296 295 296 295 295 295 295 294 294 293 293 292 292 291 289 288 288 287 287 286 286 285
315 315 316 317 317 316 316 316 317 318 318 316 315 318 319 316 316 318 317 316 315 315 314 312 313 315 314 312 311 313 313 313 312 311 310 310 310 309 306 304 302 302 302 303 302 301 300 298 297 297 297 298 299 297 297 296 296 295 296 296 296 295 295 295 295 294 295 294 294 294 293 293 292 291 291 291 290 290 289 288 288 287 286 285 285 285
314 316 316 316 315 315 317 318 316 315 317 316 315 315 316 314 313 315 314 313 314 316 315 314 314 314 313 310 310 312 313 312 311 310 310 309 309 309 308 306 303 300 301 302 301 301 300 298 297 296 296 297 298 298 296 296 295 295 295 295 294 294 294 294 294 294 293 293 293 292 292 291 291 290 289 289 289 289 288 288 287 286 285 285 284 284
313 314 314 313 313 314 315 315 314 312 315 316 314 313 313 311 311 311 311 312 313 313 312 311 311 310 310 310 310 311 312 311 310 310 309 309 308 308 308 306 301 299 300 301 300 299 298 297 296 296 295 296 297 297 296 295 295 294 294 293 293 293 293 293 293 293 293 292 292 291 291 291 290 289 289 288 288 288 287 287 287 286 286 285 285 285
308 311 313 312 312 313 313 313 313 311 313 315 313 311 312 311 310 309 309 309 310 311 311 310 308 307 308 309 309 309 310 310 310 308 308 308 308 307 305 302 299 299 300 300 299 298 297 296 296 295 295 295 296 296 295 294 294 293 293 292 292 292 292 292 292 292 292 291 291 290 290 289 289 289 288 287 287 287 286 286 286 286 286 285 285 286
307 310 312 311 311 312 312 312 312 312 312 312 311 310 311 310 308 309 310 310 311 311 312 311 310 309 308 306 306 307 309 309 309 307 306 306 306 305 301 298 297 298 299 299 298 298 296 296 295 294 294 294 295 294 293 293 293 292 292 291 291 291 291 291 291 291 291 290 290 289 289 289 288 288 287 287 286 286 285 285 285 285 285 286 286 286
309 310 311 311 312 313 311 309 309 309 308 308 308 309 308 307 308 310 312 312 312 311 310 310 310 310 309 306 302 303 308 310 307 305 306 305 302 299 298 297 297 298 297 297 297 296 295 295 294 293 293 293 293 293 292 292 291 291 291 290 290 291 291 290 290 290 289 289 289 289 288 288 287 287 287 286 286 285 285 284 284 284 285 285 285 285
Wind_Speed
1 2 2 3 3 4 6 3 3 5 5 3 2 2 2 2 2 3 4 1 2 0 5 7 7 9 9 9 9 8 7 7 8 9 9 9 9 8 8 8 9 9 9 14 22 26 27 26 25 24 24 23 22 21 22 22 22 22 21 19 19 19 17 16 16 16 21 22 21 19 18 18 17 15 14 14 15 17 19 19 19 20 20 22 23 22
2 1 3 3 2 3 3 5 6 5 4 3 2 2 2 0 2 3 3 1 1 2 4 6 7 10 9 8 8 8 8 10 11 10 11 11 9 7 8 9 9 7 6 9 15 21 24 25 25 25 24 25 24 23 24 24 23 22 21 20 20 19 19 18 17 18 22 23 22 21 20 19 18 17 15 15 15 17 18 19 19 20 21 22 23 23
1 2 2 3 4 6 6 6 7 4 4 3 1 2 1 1 2 4 3 0 1 1 4 6 6 10 12 10 10 11 11 12 11 11 11 11 8 8 9 9 9 7 6 7 9 14 20 23 24 24 23 24 24 23 24 23 23 22 21 21 20 19 20 20 17 19 21 21 21 21 19 20 19 18 17 16 16 17 18 19 20 20 22 23 24 24
2 3 1 4 3 6 6 4 5 3 1 1 1 1 1 1 2 1 1 2 3 1 2 6 5 9 12 11 11 13 13 12 11 11 11 9 8 9 8 7 8 9 8 8 8 10 16 19 21 22 22 23 22 22 23 23 23 22 22 22 20 19 19 20 18 19 21 21 20 19 19 19 19 17 17 17 18 19 19 20 21 22 24 25 25 25
3 0 1 2 2 4 5 3 3 2 1 3 4 2 2 0 3 2 1 2 3 1 3 5 5 6 7 7 8 6 5 8 9 9 10 9 8 7 6 6 7 8 9 10 9 9 13 17 20 22 22 22 22 23 24 24 23 22 21 21 20 19 18 20 20 20 22 22 21 20 18 18 18 17 17 18 19 20 20 21 22 23 26 28 27 26
2 1 2 3 3 2 4 3 4 4 1 3 3 1 2 3 5 3 3 3 1 2 3 1 4 6 4 4 6 4 1 5 5 6 10 9 7 6 6 7 7 6 7 10 10 11 13 16 19 20 21 22 22 22 23 24 23 21 20 20 20 19 18 20 23 23 23 22 22 22 21 21 20 18 19 20 20 21 22 23 23 24 27 28 28 27
2 1 2 4 5 3 3 1 4 5 1 2 2 4 4 5 6 3 4 3 1 3 4 3 1 5 6 6 9 8 8 8 5 7 10 9 6 7 7 7 6 6 6 7 9 10 12 15 17 19 21 22 22 21 22 23 22 21 20 21 21 20 20 21 24 25 24 23 23 23 23 23 22 21 21 21 22 23 24 24 24 25 27 28 28 29
3 2 1 3 4 4 3 1 2 6 3 2 3 4 2 6 4 2 3 0 2 3 3 4 4 4 6 6 9 10 11 9 7 8 11 8 5 6 6 6 6 5 6 7 7 8 11 15 18 18 21 22 22 21 22 23 23 22 21 21 21 21 21 22 24 25 25 24 24 24 23 23 23 23 23 22 23 23 24 24 24 25 26 26 27 29
2 4 4 4 5 3 4 0 2 3 4 2 3 2 3 6 3 2 2 1 2 4 3 3 3 3 6 5 6 8 9 7 8 10 10 4 5 6 6 6 5 5 5 5 7 8 10 15 18 20 21 22 21 21 22 24 23 22 22 21 21 21 22 23 25 25 25 24 24 24 23 22 22 22 22 22 23 24 24 23 23 24 25 26 26 27
2 3 2 3 5 3 3 2 4 2 3 3 4 2 5 4 4 3 2 2 3 3 3 5 5 2 6 4 4 5 6 7 8 9 5 4 7 6 6 6 5 5 4 3 5 7 11 16 18 19 20 21 20 21 22 22 22 23 22 21 22 21 22 23 25 25 25 24 24 24 24 22 21 20 20 21 22 24 24 23 23 24 25 25 26 27
1 1 0 1 2 3 5 3 4 3 3 4 3 3 4 2 4 3 1 4 2 3 3 5 7 4 5 4 3 3 5 7 7 4 3 5 5 6 6 6 6 5 4 3 4 7 11 15 16 17 19 20 20 20 21 22 22 23 22 21 22 21 20 22 24 25 25 25 25 25 25 23 22 22 21 22 23 24 25 24 24 24 24 25 26 27
1 1 1 1 2 2 5 4 4 4 3 2 2 3 3 2 4 3 2 4 0 4 2 3 2 3 5 4 1 2 4 4 4 3 6 7 5 6 6 6 6 6 5 5 5 6 8 10 13 16 19 20 20 21 21 22 22 23 22 21 21 21 19 20 23 24 25 25 26 26 25 24 23 23 24 25 26 26 27 27 25 24 24 24 25 26
1 1 2 3 4 2 4 4 4 5 4 1 2 5 4 1 2 1 1 1 3 4 3 5 5 2 7 5 3 5 5 4 4 4 6 8 7 7 7 6 6 6 6 6 6 6 6 7 10 14 18 20 21 22 22 22 22 23 22 21 21 21 20 21 23 24 24 25 26 25 24 24 24 24 25 25 26 27 28 29 28 27 27 27 27 28
1 1 2 3 3 3 4 4 3 1 1 3 5 5 5 3 1 3 2 2 4 3 4 5 3 3 6 4 6 8 6 5 5 4 4 6 7 7 8 7 6 6 7 6 6 7 6 7 11 14 17 20 21 22 23 23 23 22 22 21 21 21 21 22 24 25 25 26 26 25 25 25 25 25 25 25 25 27 28 29 29 29 30 31 30 30
4 2 3 5 2 5 6 4 5 6 4 5 4 3 4 4 3 3 3 2 3 1 3 4 1 3 2 3 5 4 1 2 2 4 3 2 3 5 6 7 7 7 6 6 6 7 7 11 15 16 17 20 21 22 23 23 23 23 22 22 22 21 21 23 25 26 26 27 26 26 26 26 26 26 26 26 25 27 28 28 29 30 31 31 31 30
6 4 2 2 2 8 7 2 1 6 3 4 2 1 4 4 2 1 1 2 2 1 3 2 3 5 4 7 9 6 5 5 4 6 6 4 2 3 4 6 7 7 6 6 6 7 8 12 16 17 19 20 21 23 24 24 25 24 23 23 23 23 22 23 26 26 27 27 27 27 27 27 27 26 26 26 26 26 27 28 28 29 29 30 30 30
5 2 2 3 3 3 3 3 3 3 1 2 2 3 4 1 4 3 1 1 4 2 4 3 5 6 3 9 11 10 11 9 6 7 6 7 6 5 7 7 7 7 7 8 7 7 8 12 16 19 20 21 22 24 25 25 26 26 25 25 24 24 23 24 26 27 27 27 26 27 28 28 28 27 27 27 27 27 27 27 27 27 27 28 30 31
6 1 3 2 3 2 2 3 3 3 2 4 3 3 1 3 3 3 1 2 1 5 4 4 8 7 2 6 5 1 5 7 8 9 8 8 8 8 10 7 7 8 8 8 8 8 9 12 16 19 21 22 23 25 26 26 26 27 27 26 25 26 25 26 27 28 28 28 27 27 28 29 29 28 28 28 28 28 28 28 27 26 27 29 31 32
5 2 3 3 2 2 2 1 1 3 3 4 2 1 2 1 1 2 2 2 3 4 4 4 7 6 6 8 4 2 3 6 8 9 9 9 9 9 9 7 6 7 7 7 7 7 8 12 16 19 21 23 24 25 25 25 25 26 27 26 26 26 26 27 28 29 29 29 28 28 28 29 29 29 29 29 28 28 28 29 29 28 28 30 32 33
3 4 2 3 3 1 2 1 4 0 3 3 3 2 2 2 3 3 3 3 3 4 5 5 4 5 7 6 5 7 8 8 9 8 8 9 9 8 8 6 6 6 6 6 7 7 7 11 17 20 21 22 23 24 24 24 25 26 26 26 25 25 25 27 29 29 30 29 29 29 29 29 29 29 30 30 30 29 28 30 31 30 30 32 33 33
3 3 3 2 5 1 2 4 7 7 4 2 1 2 2 1 2 0 1 2 4 3 3 4 5 8 6 4 6 7 5 5 8 9 8 9 8 6 4 4 5 6 6 6 7 7 7 10 15 18 19 19 19 21 23 25 26 26 26 27 26 26 26 28 30 31 31 30 30 30 30 30 30 30 30 31 31 30 30 31 32 32 32 33 33 34
4 3 4 2 2 3 3 3 4 5 6 7 6 7 7 5 4 1 3 3 2 2 3 2 5 11 6 4 3 2 3 3 5 7 7 5 3 3 4 4 5 6 6 6 7 7 7 10 14 16 18 19 20 21 23 25 26 26 27 28 27 27 28 29 30 32 32 31 31 32 31 31 31 30 31 31 31 31 30 31 33 32 32 33 34 34
4 4 4 3 3 3 1 1 2 2 1 2 4 4 5 5 5 4 5 3 1 2 3 1 5 12 5 5 4 2 4 4 4 4 3 2 3 5 6 5 5 5 5 6 6 5 5 9 13 16 18 19 20 21 22 24 25 27 28 28 28 29 29 29 30 31 32 32 32 33 32 32 32 32 32 32 32 32 31 32 33 33 33 33 33 34
3 3 3 3 1 2 2 1 2 4 3 1 3 1 2 4 5 5 5 3 2 3 4 2 6 12 5 5 4 2 3 3 3 3 2 2 2 4 6 6 5 5 5 4 4 4 4 6 10 13 16 19 21 21 22 24 25 26 27 28 29 30 30 30 29 30 32 33 33 33 33 34 33 33 33 33 34 33 33 33 33 33 33 33 33 34
3 3 4 4 2 1 2 2 2 3 1 2 3 3 5 6 7 6 4 2 2 8 9 5 8 11 4 4 3 1 1 3 4 4 6 6 6 5 5 6 6 6 6 5 4 4 5 6 7 10 14 18 22 24 24 24 25 25 26 28 29 30 30 29 30 31 32 33 34 34 35 35 35 35 35 34 34 34 34 34 34 34 34 34 34 34
5 5 5 5 5 5 4 3 3 2 1 1 4 7 9 9 9 7 4 3 6 12 11 8 9 12 9 3 3 3 3 5 7 5 6 6 6 5 5 6 6 6 6 7 7 7 7 7 7 11 15 18 20 24 25 25 26 26 27 28 29 30 30 29 30 31 32 34 35 36 36 36 37 37 37 36 35 34 35 35 35 34 34 34 35 35
3 4 7 8 9 9 7 6 6 7 5 5 9 11 12 13 12 8 4 6 10 10 8 11 12 14 18 12 5 6 6 6 7 6 6 6 6 6 6 7 6 6 6 7 7 7 7 8 9 13 17 19 20 22 24 26 27 27 27 28 30 30 30 30 31 31 33 34 35 37 38 39 39 38 38 37 36 34 35 35 35 34 34 35 35 36
4 3 8 11 11 11 11 9 7 11 10 12 13 13 14 15 14 12 11 13 13 7 9 14 11 11 21 18 10 10 9 7 8 7 7 7 7 7 6 5 5 5 6 6 6 6 7 8 9 11 16 19 20 22 23 25 26 27 29 29 30 30 30 31 31 32 33 34 36 38 40 40 40 39 38 37 35 34 34 34 34 35 34 35 36 37
4 4 7 10 12 13 13 11 8 11 10 10 13 15 16 16 16 17 19 21 16 9 12 16 11 12 20 17 9 10 10 9 10 10 9 7 7 7 7 6 6 7 7 7 7 7 8 10 9 9 13 18 20 23 25 25 27 27 28 30 30 31 31 30 31 33 33 34 37 40 39 39 39 39 38 37 36 36 35 34 34 35 35 35 36 37
3 5 7 8 9 11 13 13 9 9 7 7 10 13 15 18 21 22 22 23 19 13 15 17 15 16 20 14 7 9 9 8 8 7 7 7 7 8 7 6 6 7 7 7 7 8 10 10 9 10 13 18 22 26 26 26 28 29 30 31 31 32 32 32 32 33 33 35 38 38 36 36 37 38 38 38 38 37 36 35 35 35 35 36 36 36
1 5 6 6 5 8 12 13 9 8 7 7 7 10 15 18 20 22 20 17 14 14 17 17 16 19 18 10 8 12 10 8 9 7 7 8 7 6 6 6 7 8 8 9 9 10 9 9 9 9 13 19 24 27 27 27 28 29 30 31 32 32 33 33 33 34 35 37 37 34 34 36 37 37 38 38 38 38 37 36 36 36 36 36 36 36
3 2 1 3 3 8 11 12 9 7 6 7 10 15 17 16 15 15 13 11 12 14 15 14 13 17 14 5 6 12 9 7 10 8 7 7 6 6 9 9 9 8 9 10 10 9 9 8 8 9 13 19 24 25 25 27 27 27 30 32 32 31 31 31 33 35 36 36 35 33 35 37 37 37 38 38 38 38 37 36 35 36 36 36 36 36
5 4 2 4 5 10 10 7 5 4 3 9 16 19 17 14 13 10 9 12 16 14 11 11 13 17 14 6 8 11 8 7 9 8 7 8 8 9 11 11 9 9 10 9 9 9 8 8 9 10 13 18 21 23 26 27 27 28 31 32 30 29 29 31 33 35 35 35 34 34 35 36 36 37 37 38 38 37 36 35 36 36 37 36 36 36
6 7 5 4 5 9 7 3 6 5 10 13 11 10 13 15 16 14 13 16 16 12 10 12 14 17 15 10 11 12 10 9 9 8 9 8 8 9 9 8 9 9 9 8 8 8 7 8 9 10 12 14 18 22 25 25 26 28 28 27 27 28 30 32 34 34 35 35 35 35 35 35 36 37 37 37 36 35 35 36 37 37 37 36 36 37
7 7 5 4 4 4 2 6 4 9 13 9 5 4 9 11 12 14 16 17 15 13 14 16 18 19 18 13 12 13 12 10 10 13 12 8 7 8 7 8 9 9 9 8 8 8 7 7 8 10 12 14 16 17 19 21 23 24 24 24 25 28 31 33 33 34 35 35 35 35 36 36 36 36 36 36 35 35 36 37 37 36 36 36 36 37
7 6 4 2 3 2 2 5 9 8 5 6 8 8 6 3 3 6 10 13 14 14 14 16 18 19 17 15 14 13 13 12 14 14 8 4 6 8 8 9 9 8 9 8 7 7 7 6 7 9 12 14 14 14 16 18 19 21 22 23 25 27 30 31 32 34 34 33 33 34 35 35 35 34 35 35 36 37 37 37 37 36 35 35 35 36
5 5 4 4 5 4 5 8 7 6 8 11 13 8 5 4 5 6 7 12 13 12 12 13 16 17 15 13 14 14 12 12 14 10 1 6 8 9 8 9 8 8 8 7 6 6 6 7 8 9 11 13 13 13 14 16 17 18 20 22 24 26 27 29 32 34 33 32 32 34 34 35 35 35 35 36 37 38 38 37 36 35 35 35 34 35
4 4 5 6 5 4 6 8 6 5 10 15 12 4 6 9 9 8 6 11 12 10 10 12 14 15 13 12 15 15 10 9 11 7 2 6 7 6 7 8 7 6 6 6 6 7 7 8 9 11 12 13 14 13 12 13 14 16 18 21 23 25 25 28 32 33 32 32 34 34 34 36 37 37 37 37 38 38 37 36 36 35 35 36 35 35
7 4 3 5 5 4 6 7 7 8 10 9 6 2 6 10 10 9 6 10 9 6 10 12 14 14 13 15 15 9 4 5 8 7 6 8 6 3 5 4 3 3 3 4 4 7 9 10 12 13 13 14 15 14 11 11 12 14 18 22 22 23 25 30 33 32 32 33 33 33 34 35 37 38 38 38 38 37 36 35 35 35 34 35 35 34
8 5 4 6 6 7 8 8 6 6 7 6 4 3 4 4 9 9 6 8 4 7 9 12 13 13 13 12 7 3 5 7 8 6 5 5 2 1 1 1 2 3 4 6 7 8 11 12 12 14 15 15 15 14 12 11 11 14 20 21 20 22 28 32 32 30 30 31 30 31 33 34 36 37 37 37 36 36 35 35 34 33 33 33 33 33
6 5 5 7 8 9 10 8 4 3 6 6 5 4 1 3 6 8 8 5 6 7 5 6 8 9 8 5 3 4 6 5 5 5 3 2 4 5 4 2 4 5 7 10 10 10 12 13 13 14 15 15 15 14 13 12 13 17 20 19 19 25 29 29 27 26 27 27 28 29 31 32 34 35 36 36 35 34 34 34 33 33 33 33 32 32
5 4 4 5 6 6 7 6 4 5 6 5 4 3 3 3 3 8 5 1 4 4 3 2 1 4 4 0 2 3 4 5 6 6 7 6 6 7 6 5 5 7 9 10 10 10 10 12 13 15 16 15 14 13 12 12 16 19 19 19 22 26 26 24 23 23 23 24 26 27 28 30 32 32 33 32 32 31 31 31 32 32 32 32 31 29
7 5 4 5 5 4 4 5 5 6 5 8 8 2 3 5 5 5 2 2 2 2 3 5 4 3 3 3 2 2 5 6 5 5 5 5 5 5 6 6 6 7 8 9 10 11 10 11 13 16 17 15 13 13 12 13 18 19 18 20 23 23 21 20 20 20 20 22 24 25 26 27 28 30 30 30 31 31 30 30 30 30 30 29 28 27
6 6 4 5 5 4 5 7 7 5 5 9 9 5 6 7 3 3 4 1 1 2 3 4 1 1 2 2 3 4 5 6 6 6 6 6 6 5 6 6 7 9 10 11 12 11 10 11 14 16 17 16 14 14 14 14 17 18 19 22 22 18 17 17 17 17 18 20 21 22 24 25 26 28 29 30 30 30 29 28 28 28 27 28 27 25
8 8 5 4 5 5 5 6 5 3 4 6 5 3 4 3 2 5 5 3 2 1 3 2 2 5 2 2 3 4 4 5 6 6 6 6 7 6 6 7 9 11 12 13 14 12 11 12 14 16 18 18 15 15 16 15 16 18 20 20 17 14 14 14 14 15 17 18 19 20 21 23 25 26 28 29 29 29 28 28 27 27 26 26 26 25
4 4 2 2 3 4 4 4 2 1 1 4 4 1 3 3 4 5 5 4 1 4 3 2 3 5 3 2 2 3 5 6 6 6 6 7 7 7 7 8 10 11 12 13 15 15 13 13 14 15 19 20 18 16 16 16 16 18 20 18 14 13 13 13 14 15 15 17 18 18 20 21 23 24 25 26 28 28 28 29 29 27 26 25 25 24
1 1 2 1 3 3 3 4 3 1 0 2 3 2 3 4 3 3 2 1 3 4 4 4 5 5 4 4 4 6 7 7 6 7 7 6 7 8 7 7 10 11 11 12 13 14 14 14 16 17 19 21 21 17 16 17 17 17 17 16 13 12 12 13 15 15 16 17 17 18 20 21 22 22 23 24 25 25 26 27 27 26 25 24 24 22
1 2 2 2 3 3 3 3 1 0 3 3 2 2 4 4 5 3 2 3 2 2 3 4 5 4 4 5 6 7 8 7 7 7 7 6 7 8 7 8 11 13 13 13 12 12 13 14 17 18 20 23 23 19 17 18 18 17 16 15 13 13 13 14 16 16 17 17 18 19 20 21 22 23 23 23 23 23 24 24 25 25 25 26 27 26
2 2 1 1 0 2 5 5 1 1 5 5 2 2 3 5 7 8 6 4 3 4 5 5 4 6 6 6 6 6 7 9 8 7 7 7 7 7 8 10 13 15 17 16 14 13 14 15 18 20 22 25 24 20 18 19 18 16 15 15 14 14 15 16 16 17 17 18 19 20 21 21 22 23 23 22 20 20 20 22 24 24 24 25 26 27
2 1 1 2 2 2 3 2 1 1 4 4 2 2 1 3 4 9 9 5 5 6 5 6 7 6 6 7 7 7 7 9 8 7 7 8 8 8 9 11 13 16 19 18 16 16 17 17 19 20 23 25 24 20 19 19 18 16 15 15 15 15 16 17 17 17 18 19 20 21 21 22 22 22 22 22 20 19 17 17 19 22 22 21 22 23
3 3 3 3 2 4 4 3 3 4 2 5 5 7 6 1 2 6 8 6 6 7 5 5 7 8 8 8 7 7 7 8 8 7 7 8 10 11 12 12 13 16 19 19 17 17 19 20 20 20 23 24 22 20 20 20 18 16 16 15 16 16 17 18 18 19 19 20 21 22 23 23 23 22 22 22 22 22 19 16 14 15 17 18 18 19
Wind_Direction
51 99 189 198 197 206 198 175 83 54 28 11 52 20 350 51 64 94 105 14 336 291 239 236 249 260 257 256 261 261 252 237 226 225 230 228 225 223 219 219 209 204 209 195 186 186 185 186 187 187 188 188 189 191 194 196 197 200 205 204 201 197 198 211 213 200 195 198 201 205 209 210 210 208 204 205 204 201 202 201 202 204 201 198 198 197
49 131 219 188 96 65 101 87 64 46 40 19 9 22 342 99 106 70 85 154 33 43 266 275 283 273 267 262 262 264 260 255 242 234 238 235 225 215 214 223 219 205 190 174 171 174 177 180 183 184 185 185 187 189 193 195 196 199 201 202 203 198 195 206 211 201 198 202 203 204 205 206 206 205 205 208 204 199 199 199 199 201 198 193 192 193
80 237 216 114 85 67 57 58 59 41 54 53 345 43 352 239 113 58 45 125 112 117 269 304 312 282 275 266 257 252 244 250 247 237 241 238 226 218 212 215 213 196 167 151 147 161 171 176 179 181 183 186 190 190 192 195 195 196 198 200 202 201 197 200 207 204 201 203 206 206 207 207 205 205 210 214 210 204 200 199 198 196 194 189 185 185
169 231 172 97 98 87 68 60 77 67 52 166 220 78 243 233 109 64 335 243 202 160 305 308 301 276 275 269 257 249 238 243 251 248 249 238 223 224 214 203 200 191 174 162 154 161 171 174 177 181 183 187 190 191 192 193 194 195 197 198 199 204 202 196 199 204 203 202 201 203 207 209 207 208 213 213 211 207 201 198 196 192 189 184 179 180
157 319 343 91 122 113 103 112 133 144 231 220 203 209 240 64 78 111 51 263 216 71 351 312 304 275 264 260 262 267 230 230 243 250 256 249 233 227 220 215 210 194 174 170 172 171 173 176 180 184 185 187 189 191 193 193 195 195 198 200 200 205 204 196 198 201 203 201 198 199 201 203 203 206 208 206 205 202 197 196 193 190 187 183 178 178
166 320 310 124 134 135 131 158 190 178 230 237 199 268 289 61 68 72 34 6 343 333 294 352 346 295 292 288 280 314 293 229 230 237 250 255 242 221 222 227 225 208 175 170 176 176 176 179 182 184 185 188 190 193 195 195 196 196 198 200 200 202 200 198 202 203 203 203 202 199 196 196 196 197 201 203 204 200 195 192 190 189 187 183 180 177
130 349 346 121 133 119 121 209 194 161 168 277 269 328 338 70 70 41 25 28 5 283 251 138 114 275 297 295 271 273 265 243 214 222 242 246 226 208 210 208 203 203 189 174 168 168 173 176 178 183 186 188 191 194 194 194 196 196 198 199 200 203 199 199 205 206 206 206 205 205 203 202 201 200 204 207 207 202 195 192 190 189 188 185 182 180
114 115 41 107 119 113 132 239 179 153 146 251 266 306 360 82 86 73 55 83 244 314 283 174 168 260 283 258 240 242 249 242 213 229 250 244 207 185 174 169 168 169 174 170 160 158 168 175 178 181 185 189 191 191 192 193 194 196 198 200 203 205 201 201 206 207 208 208 207 206 205 206 207 208 208 207 205 201 196 192 191 191 189 187 185 183
62 146 165 141 136 140 148 150 311 155 141 221 259 302 74 88 95 97 61 320 316 360 315 220 175 269 272 245 228 227 228 227 219 235 248 222 138 134 131 125 114 102 115 145 157 158 163 172 178 181 184 188 190 190 191 192 194 197 199 200 202 204 203 204 207 207 209 212 211 208 205 205 206 207 207 205 202 198 196 193 192 193 192 190 188 187
9 169 193 144 149 153 119 41 346 47 118 204 218 90 76 84 76 73 71 32 14 332 259 204 176 251 279 250 195 197 200 206 222 237 233 135 121 125 125 123 113 89 79 108 137 145 156 168 175 179 181 183 186 190 192 192 193 196 198 199 200 203 205 207 209 209 209 212 213 211 208 204 200 200 203 200 196 194 194 193 192 194 194 192 191 191
37 146 283 81 125 133 118 83 24 52 110 157 170 90 68 63 59 55 65 70 41 288 260 199 187 200 286 286 165 177 198 197 212 223 140 121 129 134 138 150 146 132 124 120 112 119 141 160 169 172 174 178 183 187 190 191 192 194 195 197 198 202 207 209 211 211 210 211 213 213 209 203 199 200 199 195 193 193 194 195 194 195 195 195 195 194
106 78 126 13 332 133 117 73 27 21 53 93 148 118 87 12 32 29 8 58 95 254 281 299 276 200 243 274 291 255 248 214 218 203 158 157 168 162 165 172 157 149 158 152 131 122 131 150 166 169 170 175 181 184 187 190 192 193 195 197 198 202 206 210 212 212 211 211 213 213 209 203 202 204 202 199 198 197 197 199 198 196 196 197 198 198
119 132 114 55 329 232 134 85 32 360 3 42 165 122 106 336 9 360 298 125 224 238 268 317 352 271 243 253 252 256 259 238 229 218 160 149 166 178 177 175 160 154 162 162 154 152 153 161 175 175 172 176 182 184 187 189 192 194 197 198 199 202 206 210 212 213 215 214 213 212 209 204 205 208 209 207 207 206 204 202 199 198 199 199 201 201
116 347 103 94 334 254 176 138 121 249 246 187 172 137 139 168 191 237 221 207 236 246 293 324 6 265 274 285 250 241 241 223 206 214 174 147 169 186 179 170 163 163 168 171 168 167 174 178 184 185 180 181 185 187 189 190 193 194 196 198 199 203 209 211 212 214 217 217 213 212 211 207 207 210 214 215 215 214 209 204 202 202 203 203 204 204
176 271 189 168 183 182 190 196 165 157 172 200 192 150 170 177 180 209 184 203 242 260 301 315 316 216 237 283 246 211 241 305 297 267 256 197 162 150 157 160 160 174 178 175 175 178 187 184 184 189 189 189 189 190 191 193 195 195 195 197 199 204 210 212 212 213 215 216 214 213 212 210 211 215 219 219 218 217 210 204 204 205 205 206 205 204
184 235 208 178 189 164 175 254 138 120 140 219 217 174 230 219 167 141 157 168 142 357 289 245 240 224 213 269 264 234 256 286 275 265 266 264 237 137 181 190 173 182 180 175 184 188 192 187 186 190 192 194 193 192 194 195 195 196 195 197 201 206 210 212 213 213 214 215 215 215 213 212 215 218 219 217 215 214 210 206 206 207 207 206 205 205
167 236 318 347 357 137 156 331 25 100 159 199 164 201 228 208 98 120 279 44 100 267 267 183 252 280 304 284 266 232 238 241 234 253 257 252 247 228 238 225 189 190 183 180 191 189 189 188 190 194 195 196 195 194 196 197 198 198 198 198 201 205 209 212 213 213 215 216 216 215 213 213 216 218 218 216 214 213 210 208 208 207 207 207 207 207
149 167 313 348 11 347 305 328 27 50 68 118 157 218 215 25 43 116 230 343 132 250 269 181 237 274 288 275 300 92 219 220 217 233 241 245 243 236 248 239 195 189 182 184 192 189 189 189 191 195 197 198 198 198 198 200 201 203 203 203 201 202 206 210 212 213 215 216 216 214 213 215 218 220 219 218 216 215 213 211 209 206 207 209 209 210
149 158 310 342 332 309 339 317 101 17 37 111 165 253 101 107 264 142 171 228 197 230 268 239 244 257 226 238 293 354 231 217 212 213 217 231 231 231 248 241 184 169 173 183 190 191 192 193 194 196 199 201 200 200 201 200 202 204 205 206 206 206 207 208 210 212 214 216 217 216 215 218 222 222 221 219 217 217 216 214 211 207 208 211 211 212
135 173 245 316 314 343 39 180 183 166 9 32 360 346 89 142 185 177 181 191 176 204 256 271 276 258 228 223 244 244 236 222 203 194 205 222 222 222 237 229 181 167 180 185 189 199 200 196 196 197 201 204 201 200 200 199 201 204 205 207 209 210 208 206 208 210 212 213 215 217 217 219 222 223 221 219 218 218 218 216 212 208 209 211 213 213
114 187 201 305 325 345 169 207 190 181 178 173 275 222 192 139 116 181 266 178 159 184 239 265 276 265 241 194 207 220 228 211 181 174 199 218 218 208 196 180 161 163 180 185 188 200 201 197 198 198 200 205 205 202 200 200 202 204 206 208 209 210 208 207 207 208 209 210 212 215 216 218 221 222 221 219 218 219 219 217 212 209 211 213 214 214
155 176 156 158 259 208 210 238 191 181 178 180 195 198 196 183 141 175 255 222 148 178 216 213 273 274 254 148 184 195 86 87 134 156 185 197 182 140 115 120 136 152 172 185 193 196 190 190 195 196 195 198 203 203 202 202 203 204 207 208 209 211 212 210 208 207 208 208 210 214 216 217 219 221 220 217 217 217 218 216 211 210 213 215 216 216
129 125 139 159 187 189 245 357 91 102 113 187 221 207 190 186 160 168 215 221 137 252 253 204 266 271 262 99 79 68 101 107 104 109 131 134 121 128 135 138 135 149 169 175 179 185 187 189 191 194 195 195 200 204 204 205 205 207 210 210 210 212 214 214 212 209 208 208 210 213 215 217 219 220 219 216 215 215 216 215 212 212 215 216 217 216
86 109 142 150 104 39 11 15 61 48 46 301 265 210 158 194 187 181 201 193 151 210 217 182 245 262 280 79 92 112 121 134 132 122 160 215 211 163 162 159 156 171 170 139 129 136 154 187 194 198 199 197 199 204 206 208 209 211 213 213 213 215 215 215 213 211 209 209 210 212 213 215 217 219 219 217 216 216 216 216 214 215 217 218 218 217
159 153 142 138 139 357 352 339 345 360 20 234 237 196 194 209 190 185 208 193 215 223 203 190 238 251 276 45 47 337 183 204 224 210 198 216 231 215 186 176 178 181 161 143 146 151 158 179 202 219 218 208 201 201 205 209 212 214 216 217 218 218 217 216 214 212 210 209 210 210 212 214 215 217 219 218 218 219 219 218 216 216 217 219 219 218
162 168 154 154 187 213 220 215 213 212 168 212 228 205 204 210 191 182 192 186 226 234 217 214 243 256 267 310 360 316 253 242 250 227 208 223 227 217 209 203 194 181 174 178 179 180 185 189 202 223 231 227 214 205 203 207 211 215 219 221 222 222 219 217 216 213 211 210 209 210 211 212 214 215 218 219 220 221 220 218 217 217 218 219 219 218
131 176 178 182 200 210 217 220 178 145 139 192 216 207 201 208 202 190 184 202 222 236 238 233 238 260 269 264 265 279 258 253 261 234 221 240 236 230 235 228 206 188 199 205 188 184 195 201 207 214 221 228 228 217 209 208 210 214 219 223 225 225 222 218 216 214 212 211 211 211 211 212 214 215 217 219 221 220 219 217 216 217 218 219 219 218
99 194 201 200 215 222 230 234 173 151 175 199 205 204 203 206 202 197 212 222 218 218 245 244 222 239 263 260 248 256 254 250 258 241 228 231 223 228 231 212 203 210 217 214 198 194 206 218 225 218 213 218 225 225 219 215 214 216 219 224 225 225 223 218 216 215 213 211 212 214 214 213 213 215 216 218 219 218 217 215 215 217 218 218 218 217
119 204 214 205 224 236 241 243 193 175 195 200 199 204 202 202 200 203 218 226 219 207 238 249 227 224 254 259 238 241 245 242 245 236 227 224 213 219 213 186 195 222 228 220 211 213 223 230 231 217 211 214 219 223 222 219 220 219 221 225 224 223 223 219 216 216 214 213 215 217 216 214 213 213 215 216 216 215 214 214 214 216 218 218 218 216
139 205 217 208 225 242 246 247 223 202 212 210 209 208 200 201 203 206 217 225 224 223 236 250 252 248 255 257 247 251 246 241 252 242 225 224 218 219 220 212 226 243 252 254 245 236 233 233 228 212 208 211 215 221 222 221 222 221 222 225 224 222 222 219 217 217 215 217 219 219 217 216 214 213 212 212 212 212 212 212 212 214 216 217 216 215
212 211 212 199 226 251 248 250 240 219 225 236 236 226 213 209 209 212 219 222 224 233 240 248 259 261 257 252 259 267 262 261 270 253 223 225 226 235 254 253 254 263 268 267 260 250 244 238 228 212 206 212 219 222 224 226 228 225 225 226 224 222 221 218 216 217 218 221 222 219 218 218 215 213 211 211 210 210 209 210 210 211 214 215 214 213
187 218 214 147 207 247 246 247 242 228 240 258 255 241 226 216 215 217 216 213 214 223 234 240 248 256 257 242 248 262 261 258 259 239 226 243 243 249 262 260 259 264 260 256 256 259 260 250 235 220 216 223 228 229 231 233 230 226 227 229 226 224 221 217 217 218 221 223 223 219 218 218 216 214 212 211 210 209 209 208 208 210 212 213 212 211
168 191 197 153 203 247 250 240 212 176 218 250 247 241 232 226 229 226 216 217 216 212 220 229 237 251 260 251 249 261 259 252 256 239 228 244 247 249 259 264 264 261 256 253 254 256 257 253 250 247 244 244 243 244 245 241 233 231 234 233 227 222 220 219 220 220 222 224 223 220 220 218 216 215 214 212 211 209 208 207 208 210 211 211 211 210
176 194 198 169 206 243 238 139 114 168 223 238 243 234 226 227 229 228 230 230 221 211 221 236 245 256 262 258 257 264 259 249 251 241 226 230 245 255 260 262 262 263 265 263 257 257 261 266 276 282 280 276 271 265 258 250 242 241 242 236 226 221 220 220 221 221 223 224 223 221 220 218 216 216 215 214 212 209 207 208 210 211 211 210 210 208
181 196 201 183 200 226 150 112 161 221 230 244 282 255 226 228 226 228 238 240 233 227 231 240 251 257 261 265 266 267 267 262 257 255 252 247 254 260 257 256 263 270 274 273 267 267 270 276 292 305 306 303 296 283 267 256 250 246 241 234 227 223 221 221 221 221 223 224 222 221 219 217 216 216 215 214 212 210 209 209 210 210 210 209 209 209
174 184 192 190 184 171 142 183 218 242 277 303 289 259 227 213 212 235 254 252 240 234 235 240 250 256 261 267 268 266 269 271 267 266 263 231 233 247 253 259 267 269 269 270 266 268 278 294 307 312 308 305 302 291 275 264 256 245 237 233 229 225 223 221 221 223 224 223 222 221 220 217 216 215 214 214 212 211 210 210 210 209 208 208 209 210
166 172 178 201 199 194 215 226 241 295 305 278 264 247 197 180 185 199 246 256 244 231 231 240 249 253 257 261 262 263 265 268 274 282 204 171 213 233 245 257 264 267 273 280 281 286 303 312 313 311 307 303 297 290 281 272 259 243 235 231 228 226 224 221 223 226 225 224 224 223 221 219 216 215 214 213 211 211 210 210 209 209 207 207 207 208
185 184 179 199 204 191 218 237 245 257 255 253 254 227 167 187 190 173 207 255 254 227 217 233 244 247 248 246 248 254 260 268 279 287 211 209 238 249 249 260 274 286 300 311 311 316 318 314 313 311 306 303 300 298 291 276 259 242 233 231 229 226 223 223 227 228 226 226 227 225 222 220 217 216 214 213 212 211 210 208 208 208 207 206 207 207
199 202 189 205 210 192 207 228 227 227 244 255 257 218 178 185 174 152 191 253 254 199 197 225 238 238 236 239 242 244 251 263 273 276 243 237 254 251 237 263 316 326 326 334 330 322 315 313 313 308 304 303 304 308 305 282 259 241 235 235 231 226 225 228 231 231 230 231 230 227 225 221 219 217 215 215 214 212 210 209 208 208 207 207 207 208
196 196 196 208 214 207 211 225 227 234 255 256 227 245 259 193 143 144 204 252 219 171 192 215 228 233 233 239 243 197 183 225 253 269 246 224 240 335 230 311 341 308 306 320 323 319 312 309 308 306 306 307 309 313 307 286 263 244 241 240 233 229 233 237 240 238 237 237 234 230 227 223 220 218 216 215 214 212 211 209 208 206 205 206 207 208
197 197 195 206 216 212 214 228 240 247 251 237 209 213 238 74 121 173 216 226 182 197 229 217 221 246 250 236 211 198 212 237 273 311 352 35 2 345 333 316 306 301 309 316 317 315 311 310 310 307 304 306 307 306 298 282 261 249 248 243 235 238 245 249 249 247 244 241 236 232 229 225 222 220 218 217 214 211 210 209 207 205 204 205 206 206
188 192 195 204 212 214 219 229 251 261 237 187 174 205 166 121 191 214 220 120 148 201 309 24 208 313 328 359 171 224 278 316 334 343 357 2 345 332 324 324 321 311 309 312 313 312 309 310 310 305 302 305 305 298 290 272 256 253 251 244 244 251 257 257 255 252 246 241 237 232 228 225 223 221 218 216 212 209 208 208 207 206 205 203 203 202
178 178 194 199 193 199 219 214 223 255 229 152 142 182 209 196 211 204 178 54 100 131 47 48 56 36 25 23 6 296 297 316 324 322 323 323 321 315 308 314 314 301 301 307 309 310 308 304 301 298 300 304 299 290 280 261 254 255 252 251 257 264 265 260 256 253 246 240 235 230 226 224 221 218 215 213 210 208 206 203 203 203 202 201 199 198
176 175 194 202 184 169 196 213 215 224 201 165 162 184 207 207 190 122 144 175 49 82 78 63 46 216 161 54 347 319 315 319 313 309 312 311 306 300 300 306 301 296 301 302 301 304 299 291 290 292 295 296 288 280 271 258 256 257 255 260 269 272 265 260 255 247 241 236 230 227 223 220 217 214 212 210 207 204 200 197 197 197 197 197 196 194
197 193 189 187 189 184 193 214 210 176 179 198 202 199 196 202 65 85 113 103 55 124 135 117 278 278 301 20 345 323 315 306 302 305 305 298 295 292 289 288 286 291 298 299 299 300 292 283 284 287 290 292 285 273 267 262 257 256 259 268 275 269 258 253 245 235 232 228 223 220 216 213 210 209 207 205 202 198 194 192 191 191 193 193 193 191
222 207 152 134 200 228 235 233 215 119 172 235 241 217 94 77 62 87 98 86 162 208 192 188 249 265 273 283 294 285 273 278 293 297 290 291 296 292 282 281 285 288 290 292 296 299 296 292 289 286 287 291 289 277 270 266 259 257 263 270 270 260 250 240 231 227 223 219 216 212 207 202 199 199 200 200 199 197 195 193 191 189 189 189 189 190
299 72 73 118 207 219 238 243 233 201 247 245 263 311 53 69 60 82 116 205 223 206 204 217 230 240 239 227 237 258 268 277 286 286 286 290 291 290 291 290 289 288 283 282 287 293 294 292 290 288 286 288 290 286 277 270 266 265 267 266 258 248 238 227 222 218 213 210 206 202 199 194 190 189 190 191 193 193 193 193 191 187 185 185 186 186
308 61 106 197 215 207 228 245 209 155 292 288 305 5 37 42 16 351 294 271 280 248 235 229 222 230 242 237 234 247 267 275 270 270 280 280 276 284 290 286 287 292 292 290 288 285 283 280 281 283 283 284 287 287 278 271 270 268 263 256 246 236 226 219 216 211 206 203 198 194 192 189 186 184 183 184 187 189 190 192 192 190 191 193 192 189
46 27 126 142 243 257 262 274 283 283 296 313 22 76 74 50 8 334 315 312 312 292 285 280 246 220 224 241 241 236 253 266 261 256 266 274 273 275 275 277 284 288 289 292 293 286 278 274 274 276 278 281 285 285 276 269 267 263 257 248 237 227 218 213 210 205 200 195 191 187 185 184 183 181 178 178 180 184 188 192 194 195 197 199 200 200
83 227 190 76 26 267 240 246 125 140 276 302 341 277 241 79 8 316 306 303 285 271 277 293 289 270 250 245 235 221 239 262 264 255 259 268 269 269 272 279 284 286 287 291 294 289 282 276 274 274 275 279 283 280 272 267 262 256 249 240 230 221 214 207 200 194 191 188 184 182 180 177 177 178 176 174 173 173 176 185 194 199 201 202 205 208
158 211 180 145 230 239 207 176 110 92 281 278 278 278 280 164 171 266 276 272 265 263 255 257 276 287 286 270 243 216 228 257 271 269 268 272 272 272 276 278 280 283 288 292 293 290 286 282 278 275 274 278 281 276 268 265 258 249 241 232 223 217 210 202 193 186 185 185 182 180 178 175 174 174 173 173 173 171 167 165 175 192 203 206 206 207